St. Paul Lake Elmo, MN

2:55 AM CDT on May 25, 2017 (GMT -0500)
St. Paul Lake Elmo

Weather History for K21D - April, 2014

Change the Weather History Date:

Thursday, April 17, 2014

  Actual Average (KSTP) Record (KSTP)
Temperature  
Mean Temperature 34 °F -  
Max Temperature 41 °F 57 °F 80 °F (2016)
Min Temperature 28 °F 37 °F 30 °F (2012)
Degree Days  
Heating Degree Days 30    
Moisture  
Dew Point 30 °F    
Average Humidity 86    
Maximum Humidity 100    
Minimum Humidity 61    
Precipitation  
Precipitation 0.03 in - - ()
Sea Level Pressure  
Sea Level Pressure 30.19 in    
Wind  
Wind Speed 9 mph (NNW)    
Max Wind Speed 14 mph    
Max Gust Speed 18 mph    
Visibility 9 miles    
Events Snow    
Averages and records for this station are not official NWS values.
T = Trace of Precipitation, MM = Missing Value Source: NWS Daily Summary

Daily Weather History Graph

Daily Weather History Graph

Search for Another Location

Airport or City:

Trip Planner

Search our weather history database for the weather conditions in past years. The results will help you decide how hot, cold, wet, or windy it might be!

Date:

Astronomy

Apr. 17, 2014 Rise Set
Actual Time 6:23 AM CDT 7:59 PM CDT
Civil Twilight 5:52 AM CDT 8:30 PM CDT
Nautical Twilight 5:15 AM CDT 9:08 PM CDT
Astronomical Twilight 4:34 AM CDT 9:48 PM CDT
Moon 10:51 PM CDT (4/17) 7:50 AM CDT (4/17)
Length of Visible Light 14h 38m
Length of Day
13h 36m
Waning Gibbous, 93% of the Moon is Illuminated
Apr 17
Waning Gibbous
Apr 22
Last Quarter
Apr 29
New
May 6
First Quarter
May 14
Full

Hourly Weather History & Observations

Time (CDT) Temp. Windchill Dew Point Humidity Pressure Visibility Wind Dir Wind Speed Gust Speed Precip Events Conditions
12:11 AM 33.8 °F 27.7 °F 33.8 °F 100% 29.96 in 3.0 mi NNE 6.9 mph - 0.01 in   Overcast
12:30 AM 32.0 °F 22.5 °F 32.0 °F 100% 29.97 in 2.5 mi North 12.7 mph 16.1 mph 0.03 in Snow Light Snow
12:51 AM 32.0 °F 23.6 °F 32.0 °F 100% 29.97 in 2.5 mi North 10.4 mph - 0.03 in Snow Light Snow
1:11 AM 32.0 °F 23.0 °F 32.0 °F 100% 29.97 in 2.5 mi North 11.5 mph - N/A Snow Light Snow
1:30 AM 32.0 °F 23.0 °F 32.0 °F 100% 29.97 in 5.0 mi North 11.5 mph 17.3 mph N/A Snow Light Snow
1:51 AM 32.0 °F 23.0 °F 30.2 °F 93% 29.98 in 7.0 mi North 11.5 mph 16.1 mph N/A Snow Light Snow
2:11 AM 32.0 °F 22.1 °F 30.2 °F 93% 29.98 in 10.0 mi North 13.8 mph 18.4 mph N/A   Overcast
2:31 AM 32.0 °F 23.0 °F 30.2 °F 93% 29.99 in 10.0 mi North 11.5 mph - N/A   Overcast
2:51 AM 32.0 °F 23.0 °F 30.2 °F 93% 30.00 in 10.0 mi North 11.5 mph - N/A   Overcast
3:11 AM 32.0 °F 22.5 °F 30.2 °F 93% 30.00 in 10.0 mi North 12.7 mph - N/A   Overcast
3:31 AM 32.0 °F 23.0 °F 30.2 °F 93% 30.01 in 10.0 mi North 11.5 mph 18.4 mph N/A   Overcast
3:51 AM 30.2 °F 20.8 °F 28.4 °F 93% 30.02 in 10.0 mi North 11.5 mph - N/A   Overcast
4:11 AM 30.2 °F 19.8 °F 30.2 °F 100% 30.03 in 10.0 mi North 13.8 mph 17.3 mph N/A   Overcast
4:31 AM 30.2 °F 20.2 °F 30.2 °F 100% 30.04 in 10.0 mi North 12.7 mph - N/A   Overcast
4:51 AM 30.2 °F 21.3 °F 30.2 °F 100% 30.05 in 10.0 mi NNW 10.4 mph - N/A   Overcast
5:10 AM 30.2 °F 21.3 °F 30.2 °F 100% 30.06 in 10.0 mi North 10.4 mph 18.4 mph N/A   Overcast
5:31 AM 32.0 °F 23.0 °F 30.2 °F 93% 30.07 in 10.0 mi North 11.5 mph - N/A   Overcast
5:51 AM 32.0 °F 24.2 °F 30.2 °F 93% 30.08 in 10.0 mi NNW 9.2 mph - N/A   Overcast
6:10 AM 32.0 °F 24.2 °F 30.2 °F 93% 30.09 in 10.0 mi NNW 9.2 mph - N/A   Overcast
6:31 AM 32.0 °F 24.2 °F 30.2 °F 93% 30.11 in 10.0 mi NNW 9.2 mph - N/A   Overcast
6:51 AM 32.0 °F 23.0 °F 30.2 °F 93% 30.12 in 10.0 mi NNW 11.5 mph - N/A   Overcast
7:11 AM 32.0 °F 24.8 °F 30.2 °F 93% 30.12 in 10.0 mi North 8.1 mph - N/A   Overcast
7:31 AM 32.0 °F 24.2 °F 30.2 °F 93% 30.14 in 10.0 mi NNW 9.2 mph 16.1 mph N/A   Overcast
7:51 AM 32.0 °F 23.6 °F 30.2 °F 93% 30.15 in 10.0 mi NNW 10.4 mph - N/A   Overcast
8:11 AM 32.0 °F 24.2 °F 30.2 °F 93% 30.15 in 10.0 mi NNW 9.2 mph - N/A   Overcast
8:31 AM 32.0 °F 24.2 °F 30.2 °F 93% 30.16 in 10.0 mi NNW 9.2 mph - N/A   Overcast
8:51 AM 32.0 °F 22.5 °F 30.2 °F 93% 30.17 in 10.0 mi NNW 12.7 mph - N/A   Overcast
9:11 AM 32.0 °F 23.0 °F 30.2 °F 93% 30.18 in 10.0 mi NNW 11.5 mph 17.3 mph N/A   Overcast
9:31 AM 32.0 °F 23.6 °F 30.2 °F 93% 30.20 in 10.0 mi NNW 10.4 mph - N/A   Overcast
9:50 AM 32.0 °F 24.2 °F 30.2 °F 93% 30.21 in 10.0 mi NW 9.2 mph - N/A   Overcast
10:11 AM 32.0 °F 23.0 °F 30.2 °F 93% 30.22 in 10.0 mi NW 11.5 mph - N/A   Overcast
10:31 AM 32.0 °F 24.2 °F 30.2 °F 93% 30.24 in 10.0 mi NW 9.2 mph 16.1 mph N/A   Overcast
10:50 AM 32.0 °F 23.0 °F 30.2 °F 93% 30.25 in 10.0 mi NW 11.5 mph - N/A   Overcast
11:11 AM 32.0 °F 24.2 °F 30.2 °F 93% 30.26 in 10.0 mi NW 9.2 mph - N/A   Overcast
11:31 AM 32.0 °F 24.8 °F 30.2 °F 93% 30.27 in 10.0 mi NNW 8.1 mph - N/A   Overcast
12:11 PM 33.8 °F 27.0 °F 30.2 °F 87% 30.27 in 10.0 mi NNW 8.1 mph - N/A   Overcast
12:31 PM 33.8 °F 27.0 °F 30.2 °F 87% 30.27 in 10.0 mi NNW 8.1 mph - N/A   Overcast
12:51 PM 33.8 °F 27.7 °F 32.0 °F 93% 30.26 in 10.0 mi NNW 6.9 mph - N/A   Overcast
1:10 PM 33.8 °F 27.7 °F 30.2 °F 87% 30.26 in 10.0 mi NNW 6.9 mph - N/A   Overcast
1:31 PM 35.6 °F 29.9 °F 30.2 °F 81% 30.27 in 10.0 mi NNW 6.9 mph - N/A   Overcast
1:51 PM 37.4 °F 31.4 °F 30.2 °F 75% 30.27 in 10.0 mi NNW 8.1 mph - N/A   Overcast
2:11 PM 37.4 °F 31.4 °F 32.0 °F 81% 30.27 in 10.0 mi NNW 8.1 mph - N/A   Overcast
2:31 PM 37.4 °F 30.8 °F 30.2 °F 75% 30.27 in 10.0 mi NW 9.2 mph - N/A   Overcast
2:51 PM 37.4 °F 30.8 °F 28.4 °F 70% 30.28 in 10.0 mi NNW 9.2 mph - N/A   Overcast
3:11 PM 39.2 °F 32.5 °F 30.2 °F 70% 30.28 in 10.0 mi NW 10.4 mph - N/A   Overcast
3:31 PM 39.2 °F 33.6 °F 30.2 °F 70% 30.29 in 10.0 mi NNW 8.1 mph - N/A   Mostly Cloudy
3:51 PM 41.0 °F 36.4 °F 30.2 °F 65% 30.28 in 10.0 mi NW 6.9 mph - N/A   Scattered Clouds
4:11 PM 41.0 °F 36.4 °F 30.2 °F 65% 30.28 in 10.0 mi WNW 6.9 mph - N/A   Mostly Cloudy
4:31 PM 41.0 °F 36.4 °F 28.4 °F 61% 30.29 in 10.0 mi WNW 6.9 mph - N/A   Mostly Cloudy
4:51 PM 41.0 °F 37.1 °F 30.2 °F 65% 30.29 in 10.0 mi NNW 5.8 mph - N/A   Scattered Clouds
5:11 PM 39.2 °F 37.0 °F 28.4 °F 65% 30.30 in 10.0 mi NNW 3.5 mph - N/A   Scattered Clouds
5:31 PM 39.2 °F 35.9 °F 28.4 °F 65% 30.29 in 10.0 mi NNW 4.6 mph - N/A   Scattered Clouds
5:51 PM 41.0 °F 37.1 °F 28.4 °F 61% 30.29 in 10.0 mi North 5.8 mph - N/A   Scattered Clouds
6:11 PM 41.0 °F 38.0 °F 28.4 °F 61% 30.29 in 10.0 mi NNW 4.6 mph - N/A   Clear
6:31 PM 41.0 °F 37.1 °F 28.4 °F 61% 30.29 in 10.0 mi NNW 5.8 mph - N/A   Clear
6:51 PM 41.0 °F - 28.4 °F 61% 30.28 in 10.0 mi Calm Calm - N/A   Clear
7:11 PM 39.2 °F 37.0 °F 28.4 °F 65% 30.29 in 10.0 mi North 3.5 mph - N/A   Clear
7:31 PM 37.4 °F 34.9 °F 26.6 °F 65% 30.29 in 10.0 mi North 3.5 mph - N/A   Clear
7:51 PM 37.4 °F - 28.4 °F 70% 30.29 in 10.0 mi Calm Calm - N/A   Clear
8:11 PM 35.6 °F - 28.4 °F 75% 30.29 in 10.0 mi Calm Calm - N/A   Clear
8:31 PM 33.8 °F - 26.6 °F 75% 30.30 in 10.0 mi Calm Calm - N/A   Clear
8:51 PM 33.8 °F - 28.4 °F 81% 30.31 in 10.0 mi Calm Calm - N/A   Clear
9:11 PM 32.0 °F - 30.2 °F 93% 30.32 in 10.0 mi Calm Calm - N/A   Clear
9:30 PM 32.0 °F - 28.4 °F 87% 30.32 in 10.0 mi Calm Calm - N/A   Clear
9:51 PM 30.2 °F - 28.4 °F 93% 30.33 in 10.0 mi Calm Calm - N/A   Clear
10:11 PM 30.2 °F - 28.4 °F 93% 30.32 in 10.0 mi Calm Calm - N/A   Clear
10:30 PM 30.2 °F - 28.4 °F 93% 30.31 in 10.0 mi Calm Calm - N/A   Clear
10:51 PM 30.2 °F - 28.4 °F 93% 30.32 in 10.0 mi Calm Calm - N/A   Clear
11:11 PM 30.2 °F - 28.4 °F 93% 30.32 in 10.0 mi Calm Calm - N/A   Clear
11:31 PM 28.4 °F - 28.4 °F 100% 30.32 in 10.0 mi Calm Calm - N/A   Clear
11:51 PM 28.4 °F - 28.4 °F 100% 30.32 in 7.0 mi Calm Calm - N/A   Clear